DW8828 Weather Reports


Display with metric or nautical units.
time (UTC)temp
F
wind
direction
speed
MPH
gust
MPH
rain 1hr
in
rain 24hr
in
rain mn
in
humidity
%
barometer
mb
20190921084431 78 140 7.0 17.0 0.00 0.00 0.00 79 1015.1
20190921083931 78 228 5.0 13.0 0.00 0.00 0.00 79 1015.1
20190921083430 78 243 5.0 14.0 0.00 0.00 0.00 79 1015.1
20190921082931 78 138 8.0 14.0 0.00 0.00 0.00 79 1015.1
20190921082432 78 176 6.0 14.0 0.00 0.00 0.00 79 1015.1
20190921081930 78 179 6.0 15.0 0.00 0.00 0.00 79 1014.9
20190921081430 78 199 7.0 19.0 0.00 0.00 0.00 79 1014.9
20190921080928 78 145 10.0 19.0 0.00 0.00 0.00 79 1014.9
20190921080426 78 154 7.0 14.0 0.00 0.00 0.00 78 1014.9
20190921075925 78 161 7.0 16.0 0.00 0.00 0.00 78 1015.0
20190921075427 78 185 9.0 18.0 0.00 0.00 0.00 78 1015.0
20190921074924 78 183 5.0 18.0 0.00 0.00 0.00 77 1015.1
20190921074424 78 171 8.0 15.0 0.00 0.00 0.00 77 1015.1
20190921073926 78 189 8.0 16.0 0.00 0.00 0.00 76 1015.2
20190921073423 79 213 8.0 16.0 0.00 0.00 0.00 76 1015.2
20190921072923 79 172 8.0 16.0 0.00 0.00 0.00 75 1015.2
20190921072422 79 180 8.0 18.0 0.00 0.00 0.00 75 1015.2
20190921071919 79 210 9.0 18.0 0.00 0.00 0.00 75 1015.1
20190921071420 79 164 6.0 16.0 0.00 0.00 0.00 75 1015.2
20190921070920 79 182 7.0 15.0 0.00 0.00 0.00 75 1015.3
20190921070420 79 199 8.0 15.0 0.00 0.00 0.00 74 1015.2
20190921065923 79 188 7.0 15.0 0.00 0.00 0.00 74 1015.1
20190921065419 79 203 7.0 15.0 0.00 0.00 0.00 74 1015.3
20190921064916 80 185 7.0 15.0 0.00 0.00 0.00 73 1015.3
20190921064410 80 162 8.0 17.0 0.00 0.00 0.00 73 1015.3
20190921063911 80 210 8.0 19.0 0.00 0.00 0.00 73 1015.4
20190921063411 80 155 12.0 19.0 0.00 0.00 0.00 73 1015.4
20190921062909 80 180 9.0 15.0 0.00 0.00 0.00 73 1015.4
20190921062402 80 165 8.0 16.0 0.00 0.00 0.00 73 1015.4
20190921061902 80 162 9.0 16.0 0.00 0.00 0.00 73 1015.3
20190921061402 80 186 7.0 13.0 0.00 0.00 0.00 73 1015.3
20190921060902 80 173 4.0 14.0 0.00 0.00 0.00 72 1015.3
20190921060401 80 169 8.0 14.0 0.00 0.00 0.00 72 1015.2
20190921055903 80 173 4.0 14.0 0.00 0.00 0.00 72 1015.3
20190921055402 81 118 5.0 14.0 0.00 0.00 0.00 72 1015.3
20190921054903 81 179 6.0 17.0 0.00 0.00 0.00 71 1015.2
20190921054403 81 196 8.0 17.0 0.00 0.00 0.00 71 1015.3
20190921053903 81 148 8.0 16.0 0.00 0.00 0.00 71 1015.3
20190921053402 81 207 9.0 17.0 0.00 0.00 0.00 70 1015.3
20190921052901 81 176 10.0 18.0 0.00 0.00 0.00 70 1015.3
20190921052402 81 169 8.0 18.0 0.00 0.00 0.00 70 1015.4
20190921051901 81 175 8.0 16.0 0.00 0.00 0.00 69 1015.4
20190921051401 81 231 8.0 18.0 0.00 0.00 0.00 69 1015.4
20190921050901 81 169 9.0 18.0 0.00 0.00 0.00 69 1015.4
20190921050403 82 185 5.0 16.0 0.00 0.00 0.00 69 1015.4
20190921045902 82 161 9.0 16.0 0.00 0.00 0.00 69 1015.4
20190921045404 82 161 9.0 20.0 0.00 0.00 0.00 68 1015.3
20190921044903 82 209 8.0 22.0 0.00 0.00 0.00 68 1015.4
20190921044402 82 193 8.0 22.0 0.00 0.00 0.00 68 1015.3
20190921043901 82 196 13.0 22.0 0.00 0.00 0.00 68 1015.2
20190921043402 82 199 8.0 21.0 0.00 0.00 0.00 68 1015.1
20190921042901 82 203 11.0 19.0 0.00 0.00 0.00 68 1015.3
20190921042402 82 175 9.0 19.0 0.00 0.00 0.00 68 1015.4
20190921041902 82 190 10.0 19.0 0.00 0.00 0.00 68 1015.2
20190921041402 82 172 11.0 17.0 0.00 0.00 0.00 68 1015.3
20190921040902 82 190 7.0 16.0 0.00 0.00 0.00 68 1015.3
20190921040402 82 164 7.0 21.0 0.00 0.00 0.00 68 1015.4
20190921035902 83 158 10.0 17.0 0.00 0.00 0.00 68 1015.4
20190921035402 83 164 6.0 16.0 0.00 0.00 0.00 68 1015.3
20190921034903 83 185 7.0 18.0 0.00 0.00 0.00 68 1015.2
20190921034401 83 141 11.0 18.0 0.00 0.00 0.00 68 1015.2
20190921033902 83 176 9.0 18.0 0.00 0.00 0.00 68 1015.1
20190921033402 83 196 8.0 18.0 0.00 0.00 0.00 68 1015.0
20190921032902 83 165 10.0 18.0 0.00 0.00 0.00 69 1014.9
20190921032401 83 172 9.0 22.0 0.00 0.00 0.00 69 1014.9
20190921031902 83 197 9.0 19.0 0.00 0.00 0.00 69 1014.9
20190921031402 83 164 9.0 19.0 0.00 0.00 0.00 69 1014.9
20190921030902 83 152 10.0 21.0 0.00 0.00 0.00 69 1014.8
20190921030402 83 179 10.0 21.0 0.00 0.00 0.00 68 1014.6
20190921025902 83 159 11.0 20.0 0.00 0.00 0.00 68 1014.4
20190921025402 84 120 11.0 20.0 0.00 0.00 0.00 68 1014.4
20190921024903 84 180 12.0 16.0 0.00 0.00 0.00 68 1014.3
20190921024404 84 171 9.0 18.0 0.00 0.00 0.00 68 1014.1
20190921023902 84 188 4.0 20.0 0.00 0.00 0.00 68 1014.0
20190921023401 84 166 10.0 20.0 0.00 0.00 0.00 68 1013.9
20190921022902 84 233 7.0 18.0 0.00 0.00 0.00 67 1013.9
20190921022402 84 164 9.0 17.0 0.00 0.00 0.00 67 1013.8
20190921021903 84 175 6.0 14.0 0.00 0.00 0.00 67 1013.8
20190921021402 84 161 7.0 14.0 0.00 0.00 0.00 67 1013.8
20190921020901 84 159 7.0 16.0 0.00 0.00 0.00 67 1013.8
20190921020403 84 169 7.0 16.0 0.00 0.00 0.00 66 1013.7
20190921015902 84 169 9.0 15.0 0.00 0.00 0.00 66 1013.7
20190921015403 84 161 9.0 18.0 0.00 0.00 0.00 66 1013.7
20190921014901 84 123 9.0 18.0 0.00 0.00 0.00 65 1013.5
20190921014402 85 171 6.0 18.0 0.00 0.00 0.00 65 1013.5
20190921013902 85 140 8.0 18.0 0.00 0.00 0.00 64 1013.5
20190921013401 85 179 9.0 16.0 0.00 0.00 0.00 64 1013.3
20190921012903 85 149 6.0 18.0 0.00 0.00 0.00 64 1013.3
20190921012402 85 152 6.0 18.0 0.00 0.00 0.00 64 1013.4
20190921011901 85 166 5.0 17.0 0.00 0.00 0.00 63 1013.4
20190921011402 85 192 7.0 17.0 0.00 0.00 0.00 63 1013.4
20190921010901 85 149 6.0 15.0 0.00 0.00 0.00 62 1013.3
20190921010402 86 176 8.0 20.0 0.00 0.00 0.00 62 1013.2
20190921005903 86 162 10.0 20.0 0.00 0.00 0.00 61 1013.2
20190921005402 86 133 11.0 22.0 0.00 0.00 0.00 61 1013.1
20190921004902 87 134 9.0 22.0 0.00 0.00 0.00 60 1013.1
20190921004402 87 175 9.0 19.0 0.00 0.00 0.00 59 1013.0
20190921003902 87 158 5.0 17.0 0.00 0.00 0.00 59 1012.9
20190921003401 87 106 4.0 21.0 0.00 0.00 0.00 58 1012.7
20190921002902 88 147 11.0 20.0 0.00 0.00 0.00 58 1012.6
20190921002402 88 100 11.0 18.0 0.00 0.00 0.00 58 1012.4
20190921001902 88 158 7.0 18.0 0.00 0.00 0.00 57 1012.3
20190921001403 89 154 7.0 18.0 0.00 0.00 0.00 56 1012.3
20190921000904 89 178 11.0 16.0 0.00 0.00 0.00 56 1012.2
20190921000403 89 168 7.0 18.0 0.00 0.00 0.00 55 1012.0
20190920235902 89 103 9.0 15.0 0.00 0.00 0.00 54 1012.0
20190920235401 90 161 9.0 15.0 0.00 0.00 0.00 53 1011.9
20190920234903 90 202 7.0 14.0 0.00 0.00 0.00 53 1011.8
20190920234401 90 159 6.0 19.0 0.00 0.00 0.00 52 1011.8
20190920233902 91 138 6.0 19.0 0.00 0.00 0.00 51 1011.7
20190920233401 91 196 8.0 14.0 0.00 0.00 0.00 50 1011.7
20190920232903 92 175 9.0 16.0 0.00 0.00 0.00 47 1011.7
20190920232403 93 183 6.0 16.0 0.00 0.00 0.00 43 1011.6
20190920231901 93 172 7.0 16.0 0.00 0.00 0.00 41 1011.4
20190920231402 93 171 5.0 12.0 0.00 0.00 0.00 42 1011.4
20190920230902 93 162 6.0 15.0 0.00 0.00 0.00 42 1011.3
20190920230402 93 173 9.0 15.0 0.00 0.00 0.00 43 1011.3
20190920225902 93 179 8.0 13.0 0.00 0.00 0.00 43 1011.1
20190920225402 93 113 4.0 19.0 0.00 0.00 0.00 43 1011.1
20190920224902 93 155 5.0 19.0 0.00 0.00 0.00 44 1011.1
20190920224402 93 155 10.0 18.0 0.00 0.00 0.00 43 1011.1
20190920223901 93 180 11.0 17.0 0.00 0.00 0.00 44 1011.1
20190920223402 93 157 9.0 16.0 0.00 0.00 0.00 44 1011.0
20190920222902 93 182 7.0 14.0 0.00 0.00 0.00 44 1011.0
20190920222402 93 186 5.0 17.0 0.00 0.00 0.00 44 1011.1
20190920221902 94 244 7.0 15.0 0.00 0.00 0.00 44 1011.1
20190920221402 94 180 7.0 16.0 0.00 0.00 0.00 44 1011.0
20190920220902 94 141 8.0 17.0 0.00 0.00 0.00 43 1011.1
20190920220402 94 159 9.0 17.0 0.00 0.00 0.00 43 1011.0
20190920215902 94 144 7.0 15.0 0.00 0.00 0.00 42 1011.1
20190920215402 94 209 8.0 16.0 0.00 0.00 0.00 42 1011.1
20190920214902 95 192 11.0 16.0 0.00 0.00 0.00 42 1011.0
20190920214402 95 186 10.0 17.0 0.00 0.00 0.00 42 1010.9
20190920213902 95 247 5.0 17.0 0.00 0.00 0.00 43 1011.0
20190920213402 95 196 9.0 15.0 0.00 0.00 0.00 42 1011.0
20190920212903 94 188 8.0 19.0 0.00 0.00 0.00 43 1010.9
20190920212403 95 186 10.0 19.0 0.00 0.00 0.00 43 1011.0
20190920211901 95 228 6.0 16.0 0.00 0.00 0.00 43 1010.9
20190920211401 95 203 9.0 18.0 0.00 0.00 0.00 44 1010.7
20190920210902 95 127 10.0 18.0 0.00 0.00 0.00 43 1010.6
20190920210402 95 171 8.0 20.0 0.00 0.00 0.00 44 1010.7
20190920205902 95 182 7.0 20.0 0.00 0.00 0.00 45 1010.8
20190920205402 94 212 5.0 17.0 0.00 0.00 0.00 45 1010.8
20190920204901 95 171 7.0 17.0 0.00 0.00 0.00 45 1010.7
20190920204402 95 199 8.0 18.0 0.00 0.00 0.00 45 1010.9
20190920203902 95 144 6.0 18.0 0.00 0.00 0.00 46 1010.6
20190920203402 94 196 8.0 18.0 0.00 0.00 0.00 46 1010.6
20190920202902 95 176 6.0 15.0 0.00 0.00 0.00 46 1010.7
20190920202401 94 213 6.0 18.0 0.00 0.00 0.00 47 1010.7
20190920201902 94 210 10.0 21.0 0.00 0.00 0.00 47 1010.9
20190920201402 94 178 9.0 17.0 0.00 0.00 0.00 47 1010.8
20190920200902 94 186 7.0 19.0 0.00 0.00 0.00 48 1010.8
20190920200402 94 196 8.0 17.0 0.00 0.00 0.00 47 1010.8
20190920195902 94 207 8.0 16.0 0.00 0.00 0.00 48 1010.8
20190920195401 94 173 5.0 16.0 0.00 0.00 0.00 49 1010.8
20190920194902 94 162 5.0 16.0 0.00 0.00 0.00 50 1010.9
20190920194402 94 188 7.0 21.0 0.00 0.00 0.00 50 1011.0
20190920193902 94 237 9.0 19.0 0.00 0.00 0.00 50 1011.1
20190920193402 93 192 9.0 19.0 0.00 0.00 0.00 51 1011.4
20190920192901 93 168 6.0 15.0 0.00 0.00 0.00 52 1011.4
20190920192402 93 209 9.0 18.0 0.00 0.00 0.00 52 1011.5
20190920191904 92 188 11.0 18.0 0.00 0.00 0.00 53 1011.6
20190920191403 92 209 7.0 15.0 0.00 0.00 0.00 54 1011.7
20190920190902 91 180 6.0 16.0 0.00 0.00 0.00 55 1011.9
20190920190401 91 195 9.0 16.0 0.00 0.00 0.00 55 1011.9
20190920185902 92 221 6.0 15.0 0.00 0.00 0.00 54 1012.1
20190920185403 92 226 7.0 12.0 0.00 0.00 0.00 53 1012.0
20190920184903 92 255 7.0 18.0 0.00 0.00 0.00 55 1012.1
20190920184402 91 176 7.0 18.0 0.00 0.00 0.00 55 1012.0
20190920183902 92 204 7.0 17.0 0.00 0.00 0.00 56 1012.1
20190920183402 92 245 9.0 17.0 0.00 0.00 0.00 57 1012.1
20190920182902 91 185 5.0 17.0 0.00 0.00 0.00 57 1012.2
20190920182402 91 209 9.0 17.0 0.00 0.00 0.00 58 1012.2
20190920181902 91 186 9.0 16.0 0.00 0.00 0.00 58 1012.3
20190920181401 91 261 6.0 15.0 0.00 0.00 0.00 58 1012.3
20190920180903 91 197 7.0 14.0 0.00 0.00 0.00 59 1012.4
20190920180402 91 155 6.0 15.0 0.00 0.00 0.00 60 1012.4
20190920175902 90 196 6.0 15.0 0.00 0.00 0.00 62 1012.6
20190920175401 89 155 8.0 16.0 0.00 0.00 0.00 62 1012.7
20190920174902 89 195 9.0 20.0 0.00 0.00 0.00 63 1012.8
20190920174404 88 209 9.0 20.0 0.00 0.00 0.00 63 1012.9
20190920173902 88 220 6.0 16.0 0.00 0.00 0.00 63 1013.0
20190920173401 89 203 9.0 15.0 0.00 0.00 0.00 63 1013.2
20190920172902 89 197 6.0 18.0 0.00 0.00 0.00 64 1013.2
20190920172402 89 217 7.0 15.0 0.00 0.00 0.00 64 1013.3
20190920171903 88 176 8.0 26.0 0.00 0.00 0.00 64 1013.2
20190920171402 88 186 7.0 26.0 0.00 0.00 0.00 64 1013.4
20190920170901 88 212 6.0 15.0 0.00 0.00 0.00 66 1013.5
20190920170402 87 159 8.0 18.0 0.00 0.00 0.00 67 1013.5
20190920165903 87 171 6.0 17.0 0.00 0.00 0.00 68 1013.7
20190920165401 87 157 7.0 17.0 0.00 0.00 0.00 68 1013.8
20190920164903 87 147 7.0 15.0 0.00 0.00 0.00 68 1013.8
20190920164402 87 207 8.0 17.0 0.00 0.00 0.00 69 1013.8
20190920163902 87 186 8.0 16.0 0.00 0.00 0.00 69 1013.8
20190920163402 87 188 9.0 18.0 0.00 0.00 0.00 69 1013.9
20190920162902 86 220 8.0 18.0 0.00 0.00 0.00 71 1013.8
20190920162403 85 204 7.0 23.0 0.00 0.00 0.00 72 1013.9
20190920161901 85 289 8.0 18.0 0.00 0.00 0.00 72 1014.0
20190920161402 85 217 7.0 16.0 0.00 0.00 0.00 74 1013.9
20190920160902 84 186 8.0 14.0 0.00 0.00 0.00 75 1013.9
20190920160402 84 178 6.0 14.0 0.00 0.00 0.00 75 1013.9
20190920155903 83 196 6.0 13.0 0.00 0.00 0.00 76 1014.0
20190920155402 83 209 5.0 14.0 0.00 0.00 0.00 76 1013.9
20190920154903 83 190 5.0 17.0 0.00 0.00 0.00 77 1014.0
20190920154403 83 192 7.0 17.0 0.00 0.00 0.00 77 1014.0
20190920153902 83 158 7.0 15.0 0.00 0.00 0.00 77 1014.0
20190920153401 83 206 8.0 13.0 0.00 0.00 0.00 78 1014.1
20190920152902 83 221 5.0 14.0 0.00 0.00 0.00 78 1014.0
20190920152402 82 209 6.0 16.0 0.00 0.00 0.00 78 1014.0
20190920151902 83 202 9.0 16.0 0.00 0.00 0.00 78 1013.8
20190920151403 83 224 8.0 14.0 0.00 0.00 0.00 78 1013.8
20190920150902 83 180 6.0 13.0 0.00 0.00 0.00 78 1013.9
20190920150402 83 220 7.0 19.0 0.00 0.00 0.00 78 1013.6
20190920145902 83 243 6.0 17.0 0.00 0.00 0.00 78 1013.6
20190920145402 83 212 8.0 18.0 0.00 0.00 0.00 78 1013.5
20190920144902 83 189 8.0 18.0 0.00 0.00 0.00 79 1013.6
20190920144402 83 176 6.0 11.0 0.00 0.00 0.00 80 1013.6
20190920143902 82 227 5.0 12.0 0.00 0.00 0.00 81 1013.7
20190920143402 81 169 5.0 13.0 0.00 0.00 0.00 83 1013.6
20190920142902 80 244 6.0 13.0 0.00 0.00 0.00 83 1013.6
20190920142401 80 185 6.0 13.0 0.00 0.00 0.00 84 1013.6
20190920141901 80 197 5.0 9.0 0.00 0.00 0.00 84 1013.5
20190920141403 80 179 5.0 12.0 0.00 0.00 0.00 85 1013.6
20190920140904 79 166 6.0 12.0 0.00 0.00 0.00 85 1013.6
20190920140402 79 189 5.0 12.0 0.00 0.00 0.00 85 1013.5
20190920135902 79 171 6.0 12.0 0.00 0.00 0.00 85 1013.4
20190920135402 79 169 4.0 10.0 0.00 0.00 0.00 85 1013.2
20190920134902 79 190 4.0 14.0 0.00 0.00 0.00 85 1013.2
20190920134403 79 159 5.0 12.0 0.00 0.00 0.00 85 1013.0
20190920133901 79 197 3.0 13.0 0.00 0.00 0.00 86 1013.0
20190920133404 79 195 4.0 13.0 0.00 0.00 0.00 86 1013.0
20190920132902 78 162 5.0 9.0 0.00 0.00 0.00 86 1012.9
20190920132402 78 180 2.0 10.0 0.00 0.00 0.00 86 1012.9
20190920131902 78 189 4.0 10.0 0.00 0.00 0.00 87 1012.8
20190920131402 78 186 4.0 9.0 0.00 0.00 0.00 87 1012.9
20190920130902 78 169 5.0 10.0 0.00 0.00 0.00 87 1012.9
20190920130402 78 212 3.0 10.0 0.00 0.00 0.00 87 1012.8
20190920125902 78 175 4.0 10.0 0.00 0.00 0.00 87 1012.7
20190920125402 78 197 2.0 6.0 0.00 0.00 0.00 87 1012.8
20190920124903 78 224 4.0 9.0 0.00 0.00 0.00 87 1012.7
20190920124404 77 180 3.0 9.0 0.00 0.00 0.00 87 1012.7
20190920123904 77 228 4.0 9.0 0.00 0.00 0.00 87 1012.8
20190920123402 77 175 3.0 9.0 0.00 0.00 0.00 87 1012.7
20190920122904 77 186 2.0 7.0 0.00 0.00 0.00 87 1012.6
20190920122401 77 158 3.0 7.0 0.00 0.00 0.00 87 1012.6
20190920121902 77 159 3.0 6.0 0.00 0.00 0.00 87 1012.6
20190920121401 77 175 3.0 5.0 0.00 0.00 0.00 87 1012.5
20190920120902 77 178 3.0 7.0 0.00 0.00 0.00 87 1012.5
20190920120402 77 192 3.0 9.0 0.00 0.00 0.00 87 1012.4
20190920115902 77 206 5.0 9.0 0.00 0.00 0.00 87 1012.4
20190920115402 77 186 5.0 7.0 0.00 0.00 0.00 87 1012.3
20190920114904 77 175 4.0 10.0 0.00 0.00 0.00 87 1012.4
20190920114401 77 185 4.0 11.0 0.00 0.00 0.00 87 1012.4
20190920113902 77 196 6.0 11.0 0.00 0.00 0.00 87 1012.2
20190920113403 77 175 5.0 12.0 0.00 0.00 0.00 87 1012.3
20190920112902 77 161 4.0 12.0 0.00 0.00 0.00 87 1012.2
20190920112402 77 192 5.0 12.0 0.00 0.00 0.00 87 1012.2
20190920111902 77 164 3.0 13.0 0.00 0.00 0.00 87 1012.2
20190920111402 77 199 3.0 9.0 0.00 0.00 0.00 87 1012.2
20190920110901 77 148 5.0 14.0 0.00 0.00 0.00 87 1012.2
20190920110402 77 224 6.0 9.0 0.00 0.00 0.00 87 1012.1
20190920105902 77 175 4.0 9.0 0.00 0.00 0.00 87 1012.1
20190920105403 76 216 4.0 10.0 0.00 0.00 0.00 87 1012.1
20190920104902 76 166 4.0 9.0 0.00 0.00 0.00 87 1012.0
20190920104402 76 214 4.0 11.0 0.00 0.00 0.00 87 1012.0
20190920103902 76 172 5.0 11.0 0.00 0.00 0.00 87 1011.9
20190920103403 76 190 4.0 11.0 0.00 0.00 0.00 87 1011.9
20190920102902 76 185 4.0 11.0 0.00 0.00 0.00 87 1011.9
20190920102403 76 210 6.0 11.0 0.00 0.00 0.00 88 1012.0
20190920101901 76 224 4.0 11.0 0.00 0.00 0.00 88 1012.0
20190920101402 76 195 6.0 12.0 0.00 0.00 0.00 88 1012.0
20190920100904 76 176 6.0 12.0 0.00 0.00 0.00 88 1012.0
20190920100402 76 183 5.0 9.0 0.00 0.00 0.00 88 1012.0
20190920095901 76 164 4.0 9.0 0.00 0.00 0.00 88 1012.0
20190920095404 76 147 4.0 9.0 0.00 0.00 0.00 89 1012.1
20190920094902 76 173 4.0 6.0 0.00 0.00 0.00 89 1012.1
20190920094402 76 134 4.0 6.0 0.00 0.00 0.00 89 1012.1
20190920093902 76 161 2.0 5.0 0.00 0.00 0.00 89 1012.1
20190920093403 76 173 1.0 5.0 0.00 0.00 0.00 88 1012.0
20190920092902 76 183 2.0 9.0 0.00 0.00 0.00 88 1012.0
20190920092402 76 185 5.0 9.0 0.00 0.00 0.00 88 1011.9
20190920091902 77 183 4.0 9.0 0.00 0.00 0.00 87 1011.9
20190920091403 77 165 4.0 9.0 0.00 0.00 0.00 87 1011.8
20190920090903 77 180 4.0 6.0 0.00 0.00 0.00 86 1011.8
20190920090402 77 180 3.0 6.0 0.00 0.00 0.00 86 1011.8
20190920085902 76 171 2.0 5.0 0.00 0.00 0.00 86 1011.8
20190920085402 76 165 2.0 7.0 0.00 0.00 0.00 86 1011.7
20190920084902 76 166 3.0 7.0 0.00 0.00 0.00 86 1011.9